[[{"header":{"parameterUnit":"m.s-1","parameterCategory":1,"la1":30.2991,"la2":30.254,"lo1":-89.0895,"lo2":-89.0444,"dy":0.0017,"dx":0.0017,"nx":28,"ny":28,"refTime":"2025-03-13T21:00:00:Z","depth":0,"parameterNumber":2,"parameterNumberName":"U-component_of_WINDS"},"data":[0,0,0,0,0,0,0,0,0,0,0,0,0,0,0,0,0,0,0,0,0,0,0,0,0,0,0,0,0,0,0,0,0,0,0,0,0,0,0,0,0,0,0,0,0,0,0,0,0,0,0,0,0,0,0,0,0,0,-2.9236,-2.9237,0,-2.9374,-2.9376,-2.9377,-2.9428,-2.9427,-2.9427,-2.9426,-2.9569,-2.9573,-2.9577,0,0,0,0,0,0,0,0,0,0,0,0,0,-2.9015,-2.9019,-2.9236,-2.9237,-2.9239,-2.9374,-2.9376,-2.9378,-2.9428,-2.9427,-2.9427,-2.9426,-2.9567,-2.9572,-2.9577,0,0,0,0,0,0,0,0,0,0,0,0,0,-2.9128,-2.902,-2.9235,-2.928,-2.9286,-2.9374,-2.9376,-2.9378,-2.9428,-2.9427,-2.9427,-2.9426,-2.9566,-2.9572,-2.9578,-2.9631,0,0,-2.9597,-2.96,0,0,0,0,0,0,0,0,-2.9122,-2.9136,-2.9272,-2.9277,-2.9284,-2.9383,-2.935,-2.9463,-2.9428,-2.9374,-2.9426,-2.9426,-2.9507,-2.9519,-2.9546,-2.9638,-2.9644,-2.9598,-2.9602,-2.9604,-2.9606,0,0,0,0,0,0,0,-2.9114,-2.913,-2.9291,-2.9274,-2.9281,-2.9294,-2.9309,-2.9372,-2.9443,-2.9379,-2.9383,-2.9398,-2.951,-2.954,-2.955,-2.9646,-2.9598,-2.9603,-2.9607,-2.961,-2.9789,-2.979,0,0,0,0,0,0,-2.9098,-2.9124,-2.9286,-2.9295,-2.9199,-2.9298,-2.9315,-2.9352,-2.9442,-2.9456,-2.9399,-2.94,-2.9529,-2.9542,-2.9555,-2.9623,-2.9604,-2.961,-2.9614,-2.9788,-2.9789,-2.979,0,0,0,0,0,0,-2.9093,-2.9112,-2.9281,-2.921,-2.9233,-2.9303,-2.9343,-2.9355,-2.9384,-2.9458,-2.9471,-2.9416,-2.9529,-2.9546,-2.9612,-2.9629,-2.9613,-2.9619,-2.9787,-2.9789,-2.979,-2.976,0,0,0,0,0,0,-2.9087,-2.911,-2.9131,-2.921,-2.9236,-2.9335,-2.9345,-2.9358,-2.9395,-2.9398,-2.9477,-2.9489,-2.953,-2.9602,-2.9618,-2.9637,-2.9624,-2.9786,-2.9788,-2.9789,-2.976,-2.976,-2.9761,0,0,0,0,0,-2.9079,-2.9117,-2.9132,-2.9151,-2.9264,-2.9336,-2.9351,-2.9396,-2.9396,-2.9418,-2.9465,-2.9487,-2.9625,-2.9609,-2.9627,-2.9648,-2.9785,-2.9787,-2.9789,-2.976,-2.976,-2.9761,0,0,0,0,0,0,-2.9038,-2.9128,-2.9146,-2.9211,-2.9265,-2.9344,-2.9373,-2.9396,-2.9451,-2.9452,-2.9507,-2.9524,-2.9586,-2.9624,-2.9604,-2.9705,-2.9706,-2.9712,-2.9677,-2.9679,-2.9679,-2.9668,-2.9629,0,0,0,0,0,-2.9037,-2.9088,-2.9164,-2.9214,-2.9241,-2.9302,-2.9335,-2.9366,-2.9424,-2.9448,-2.95,-2.9556,-2.9612,-2.9648,-2.9703,-2.9766,-2.9784,-2.979,-2.979,-2.979,-2.9794,-2.9831,-2.9834,-2.9798,-2.9797,-2.9797,0,0,-2.9034,-2.909,-2.9119,-2.9207,-2.9253,-2.9305,-2.9321,-2.9375,-2.9413,-2.9456,-2.9521,-2.9561,-2.9628,-2.9692,-2.9723,-2.9726,-2.9809,-2.9793,-2.9792,-2.9797,-2.9833,-2.9836,-2.9839,-2.9799,-2.9799,-2.9798,0,0,-2.9056,-2.9104,-2.9151,-2.9196,-2.9265,-2.9306,-2.9317,-2.9393,-2.9421,-2.9487,-2.952,-2.9567,-2.9663,-2.9709,-2.9744,-2.9784,-2.9806,-2.9801,-2.9803,-2.9837,-2.984,-2.9843,-2.9856,-2.9861,-2.9805,-2.9805,-2.9805,0,-2.9045,-2.9123,-2.9172,-2.9224,-2.9262,-2.9303,-2.9351,-2.9393,-2.9476,-2.9502,-2.9503,-2.9624,-2.9672,-2.9747,-2.9757,-2.9785,-2.9799,-2.9791,-2.9836,-2.9839,-2.9842,-2.9856,-2.9861,-2.9804,-2.9804,-2.9804,-2.9804,0,-2.9105,-2.9159,-2.9189,-2.9268,-2.931,-2.936,-2.9416,-2.9452,-2.9479,-2.952,-2.9587,-2.9646,-2.9714,-2.9734,-2.9762,-2.9814,-2.9814,-2.9825,-2.9827,-2.9844,-2.9857,-2.9863,-2.9802,-2.9802,-2.9803,-2.9803,0,0,-2.9105,-2.9211,-2.9221,-2.9257,-2.9336,-2.9379,-2.9431,-2.9498,-2.9527,-2.9584,-2.9629,-2.9709,-2.972,-2.976,-2.9793,-2.9824,-2.9851,-2.9831,-2.9834,-2.9832,-2.9912,-2.9902,-2.9908,-2.9866,-2.9867,-2.9868,-2.9906,0,-2.9137,-2.923,-2.9276,-2.935,-2.94,-2.944,-2.9485,-2.9539,-2.9578,-2.9627,-2.9671,-2.9726,-2.9737,-2.9761,-2.9793,-2.984,-2.9867,-2.9839,-2.9908,-2.991,-2.9889,-2.9915,-2.9905,-2.9938,-2.9912,-2.9913,-2.9914,0,-2.9186,-2.9242,-2.9321,-2.9394,-2.9417,-2.9457,-2.9521,-2.9568,-2.9629,-2.9656,-2.9701,-2.9733,-2.979,-2.9788,-2.9867,-2.9846,-2.9877,-2.9905,-2.9907,-2.9915,-2.9912,-2.9922,-2.9949,-2.9954,-2.9923,-2.9922,-2.9921,0,-2.9177,-2.9272,-2.9332,-2.9362,-2.9449,-2.9476,-2.9513,-2.9575,-2.9612,-2.9668,-2.9693,-2.9756,-2.979,-2.9838,-2.9886,-2.9881,-2.9959,-2.9962,-2.9983,-2.9981,-2.9997,-2.9995,-3.0028,-3.0018,-3.0018,-3.0018,-3.0018,0,-2.9207,-2.9254,-2.9329,-2.9365,-2.9418,-2.947,-2.9522,-2.9563,-2.9617,-2.9662,-2.9701,-2.9742,-2.9804,-2.9853,-2.9892,-2.995,-2.9966,-2.9989,-2.9998,-2.9985,-2.9982,-3.0006,-3.0004,-3.0019,-3.0019,-3.0019,-3.0018,0,-2.9206,-2.9258,-2.9325,-2.9402,-2.9423,-2.9458,-2.9525,-2.9562,-2.9603,-2.966,-2.9676,-2.9741,-2.9802,-2.9855,-2.9935,-2.996,-3.002,-3.0032,-2.9999,-3.0004,-3.0021,-3.0019,-3.0071,-3.008,-3.0063,-3.0064,-3.0064,0,-2.9221,-2.9258,-2.9339,-2.9372,-2.9409,-2.9461,-2.9499,-2.9552,-2.959,-2.9663,-2.9692,-2.9755,-2.9808,-2.9903,-2.9957,-3.0018,-3.0032,-3.0046,-3.0041,-3.0027,-3.0032,-3.0028,-3.0032,-3.0045,-3.0045,-3.0045,-3.0045,0,-2.9243,-2.9267,-2.932,-2.9382,-2.9426,-2.9478,-2.9531,-2.9556,-2.9619,-2.9659,-2.9721,-2.9763,-2.9844,-2.9906,-2.9974,-3.0013,-3.0039,-3.0046,-3.0054,-3.0041,-3.002,-3.0031,-2.9998,-3.0045,-3.0045,-3.0045,-3.0045,-3.0045,-2.9251,-2.9285,-2.9347,-2.9405,-2.945,-2.9499,-2.9537,-2.9583,-2.9636,-2.9706,-2.9734,-2.9797,-2.9859,-2.9952,-2.9991,-3.0041,-3.0046,-3.0057,-3.006,-3.0062,-3.006,-3.0012,-3.0054,-3.0054,-3.0054,-3.0054,-3.0054,0,-2.9274,-2.9316,-2.9369,-2.9441,-2.9487,-2.9508,-2.9567,-2.9604,-2.9659,-2.9714,-2.9765,-2.9836,-2.9897,-2.9956,-3.002,-3.0049,-3.0063,-3.0064,-3.0062,-3.0071,-3.0052,-3.0039,-3.0052,-3.0052,-3.0052,-3.0052,-3.0052,-3.0052,-2.9291,-2.935,-2.9382,-2.9464,-2.9506,-2.9568,-2.96,-2.9645,-2.9689,-2.9766,-2.9817,-2.9855,-2.9912,-2.998,-3.0037,-3.0053,-3.0074,-3.0072,-3.0091,-3.0072,-3.0072,-3.0071,-3.0059,-3.0076,-3.0076,-3.0105,-3.0106,-3.0106]},{"header":{"parameterUnit":"m.s-1","parameterCategory":1,"la1":30.2991,"la2":30.254,"lo1":-89.0895,"lo2":-89.0444,"dy":0.0017,"dx":0.0017,"nx":28,"ny":28,"refTime":"2025-03-13T21:00:00:Z","depth":0,"parameterNumber":3,"parameterNumberName":"V-component_of_WINDS"},"data":[0,0,0,0,0,0,0,0,0,0,0,0,0,0,0,0,0,0,0,0,0,0,0,0,0,0,0,0,0,0,0,0,0,0,0,0,0,0,0,0,0,0,0,0,0,0,0,0,0,0,0,0,0,0,0,0,0,0,7.7156,7.7157,0,7.7251,7.7252,7.7253,7.7208,7.7206,7.7203,7.7201,7.7292,7.7296,7.7301,0,0,0,0,0,0,0,0,0,0,0,0,0,7.693,7.6935,7.7156,7.7157,7.7159,7.7251,7.7252,7.7254,7.7209,7.7206,7.7203,7.72,7.729,7.7295,7.7301,0,0,0,0,0,0,0,0,0,0,0,0,0,7.7027,7.6936,7.7156,7.7147,7.7148,7.7251,7.7253,7.7254,7.7209,7.7206,7.7202,7.7199,7.7288,7.7295,7.7302,7.7417,0,0,7.7323,7.7326,0,0,0,0,0,0,0,0,7.7022,7.7035,7.7147,7.7148,7.7149,7.7214,7.7206,7.7308,7.721,7.7186,7.7201,7.7197,7.7268,7.7277,7.7302,7.7421,7.7425,7.7324,7.7328,7.7331,7.7333,0,0,0,0,0,0,0,7.7015,7.7031,7.7193,7.7149,7.715,7.7137,7.7147,7.7225,7.7246,7.7187,7.7184,7.7197,7.7268,7.7296,7.7304,7.7426,7.7324,7.733,7.7334,7.7337,7.7647,7.7651,0,0,0,0,0,0,7.7009,7.7026,7.719,7.7196,7.7075,7.7144,7.7155,7.7197,7.7245,7.7249,7.72,7.7194,7.7285,7.7296,7.7307,7.7448,7.7331,7.7337,7.7341,7.7643,7.7648,7.7653,0,0,0,0,0,0,7.7005,7.7024,7.7187,7.711,7.713,7.7152,7.7199,7.7201,7.7228,7.7254,7.7257,7.7225,7.7283,7.7297,7.7391,7.745,7.7341,7.7347,7.7639,7.7645,7.7651,7.7728,0,0,0,0,0,0,7.6998,7.7023,7.7068,7.7112,7.7134,7.7271,7.7203,7.7205,7.7241,7.7235,7.7278,7.7282,7.7281,7.7381,7.7398,7.7457,7.7352,7.7633,7.7641,7.7649,7.772,7.7736,7.7749,0,0,0,0,0,7.699,7.7083,7.7071,7.7091,7.7191,7.7274,7.7287,7.7287,7.7246,7.7291,7.7308,7.7281,7.7441,7.7391,7.741,7.7472,7.763,7.7639,7.7648,7.7714,7.7733,7.7749,0,0,0,0,0,0,7.7042,7.7089,7.7075,7.7185,7.7227,7.7267,7.7323,7.7306,7.7358,7.7349,7.7344,7.7354,7.7453,7.7471,7.7415,7.7588,7.7529,7.7542,7.7572,7.7591,7.7605,7.7599,7.7358,0,0,0,0,0,7.7067,7.7133,7.7169,7.7263,7.7285,7.7301,7.7337,7.7333,7.7375,7.7391,7.7415,7.7454,7.7514,7.7553,7.7609,7.7722,7.7732,7.7775,7.7789,7.7801,7.7813,7.7877,7.7897,7.7683,7.7683,7.7683,0,0,7.7118,7.7152,7.7193,7.7275,7.7306,7.7373,7.7316,7.7388,7.7438,7.7401,7.7493,7.7512,7.7556,7.7661,7.7709,7.768,7.7875,7.7813,7.7822,7.7828,7.7889,7.7909,7.7927,7.7689,7.7688,7.7687,0,0,7.7246,7.7278,7.7361,7.7395,7.7445,7.7456,7.7476,7.752,7.7532,7.7625,7.76,7.7657,7.7759,7.7793,7.7823,7.7967,7.7945,7.7985,7.8062,7.8124,7.8141,7.8156,7.821,7.8229,7.7997,7.7997,7.7997,0,7.7302,7.7405,7.7405,7.7482,7.7519,7.7493,7.7577,7.7609,7.7673,7.7699,7.7666,7.7797,7.7824,7.7938,7.7974,7.7998,7.8022,7.7981,7.8139,7.8154,7.8168,7.8219,7.8239,7.8002,7.8001,7.8001,7.8,0,7.7473,7.7545,7.7606,7.7673,7.7717,7.7796,7.7808,7.7852,7.7845,7.7859,7.7955,7.7987,7.8051,7.8077,7.8069,7.8191,7.8172,7.814,7.8081,7.8194,7.8242,7.8261,7.8009,7.8007,7.8005,7.8004,0,0,7.7635,7.7705,7.7728,7.7759,7.7814,7.7868,7.7947,7.8013,7.8051,7.8097,7.8163,7.8252,7.8223,7.8258,7.8254,7.8309,7.8424,7.8269,7.827,7.8299,7.8563,7.8589,7.8612,7.8409,7.8413,7.8416,7.8561,0,7.7769,7.7911,7.7915,7.8043,7.811,7.8088,7.8156,7.8197,7.8213,7.827,7.8286,7.835,7.8306,7.8327,7.8381,7.8399,7.8478,7.8388,7.8471,7.8474,7.8463,7.8637,7.8664,7.8798,7.8579,7.8582,7.8584,0,7.7943,7.8,7.8137,7.8185,7.8213,7.8276,7.8338,7.8393,7.8439,7.8446,7.8487,7.8476,7.8556,7.8494,7.8605,7.8544,7.8578,7.8592,7.8597,7.8606,7.8537,7.8652,7.8841,7.8862,7.8614,7.8611,7.8609,0,7.8051,7.816,7.8258,7.8285,7.8343,7.8388,7.8414,7.8456,7.8496,7.8549,7.8576,7.8636,7.867,7.8716,7.8722,7.8676,7.8834,7.8772,7.8843,7.8843,7.8878,7.8876,7.9077,7.8897,7.8896,7.8896,7.8896,0,7.8201,7.8286,7.8308,7.8367,7.8462,7.8466,7.8559,7.8581,7.8619,7.8682,7.8664,7.8723,7.8726,7.8787,7.8791,7.8884,7.8898,7.8906,7.8906,7.8909,7.8908,7.8932,7.8923,7.8901,7.89,7.8899,7.8898,0,7.8338,7.8355,7.846,7.8508,7.8522,7.8591,7.8631,7.8688,7.8702,7.8783,7.8801,7.8824,7.8895,7.8905,7.8986,7.8989,7.9101,7.909,7.9087,7.9086,7.9157,7.9151,7.9382,7.9413,7.9211,7.9213,7.9214,0,7.8433,7.8499,7.8556,7.8599,7.8629,7.8696,7.8739,7.8744,7.8789,7.8848,7.8898,7.8968,7.9024,7.9137,7.916,7.9223,7.9215,7.9291,7.9224,7.9225,7.9219,7.9216,7.9223,7.9304,7.9307,7.9308,7.931,0,7.8602,7.8608,7.8671,7.8739,7.8791,7.8843,7.8892,7.8927,7.894,7.899,7.9064,7.9108,7.9194,7.9263,7.9326,7.9351,7.9333,7.9331,7.9351,7.9355,7.9352,7.9357,7.9125,7.9326,7.9324,7.9323,7.9322,7.9322,7.8722,7.8781,7.8832,7.8904,7.8942,7.899,7.9047,7.9071,7.9133,7.9206,7.9204,7.9286,7.9332,7.9415,7.9445,7.9508,7.9483,7.9511,7.9519,7.9526,7.9535,7.9341,7.9519,7.9518,7.9518,7.9518,7.9517,0,7.8892,7.8925,7.8991,7.9063,7.9119,7.91,7.9155,7.9203,7.9276,7.9322,7.9379,7.9465,7.9533,7.9562,7.9629,7.9674,7.9668,7.9692,7.9689,7.9696,7.9552,7.9529,7.9696,7.9696,7.9696,7.9696,7.9696,7.9696,7.8987,7.9087,7.91,7.9219,7.925,7.9333,7.9366,7.9409,7.9446,7.9545,7.9603,7.9622,7.9662,7.9732,7.9794,7.9801,7.9827,7.9855,7.9858,7.9724,7.9706,7.9688,7.9667,7.986,7.986,7.9997,7.9999,7.9999]}]]